Location: Alincthun
(50.7310°N, 1.8022°E)
Time: 16:44:28
(UTC+00:00)

Cosmos 2221 - Pass Details

Date: 17 February 2020
Orbit: 593 x 615 km, 82.5° (Epoch: 30 March)

Event Time Altitude Azimuth Distance (km) Brightness Sun altitude
Rises 05:53:07 0° 212° (SSW) 2,826 5.7 -11.5°
Reaches altitude 10° 05:55:28 10° 222° (SW) 1,931 4.8 -11.2°
Maximum altitude 05:59:22 34° 288° (WNW) 987 3.1 -10.6°
Drops below altitude 10° 06:03:21 10° 355° (N) 1,956 5.0 -9.9°
Sets 06:05:44 0° 4° (N) 2,868 6.0 -9.6°
